DELTA 4 DEB

基本信息
目录编号:
51485
目录名称:
DELTA 4 DEB
国际标识:
2018-005G
轨道中心:
EARTH
物体状态:
已陨落(2024-09-30)
发射日期:
2018-01-12 UTC
轨道信息
数据来源: 国际轨道数据
星历时间: 2024-09-27T08:30:05+0800
半长轴: 6936.29km
偏心率: 0.0008192
轨道倾角: 105.728°
近地点辐角: 114.232°
升交点赤经: 255.527°
平近点角: 245.973°
近地点: 552.472km
远地点: 563.838km
周期: 95.819分钟
每日圈数: 15.028372
详细信息
发射场:
AFWTR
轨道高度:
LEO
数据来源:
AOE Integration Group
参考系:
TEME
时间系统:
UTC
历元类型:
SGP4
2D轨道图
3D轨道图
轨道高度分析图
轨道倾角分析图
轨道综合分析图
查看轨道综合分析图